Terminal Aerodrome Forecast
Issued by NWS

Home | Current Version | Previous Version | Text Only | Print | Product List | Glossary On
Versions: 1 2 3 4 5 6 7 8 9 10 11 12
000
FTUS44 KCRP 110530
TAFALI
TAF
KALI 110530Z 1106/1206 36004KT 4SM -RADZ BR OVC006
     FM110800 VRB03KT 2SM BR OVC004
      TEMPO 1110/1113 3/4SM BR
     FM111500 19008KT P6SM OVC012
     FM111800 19014KT P6SM OVC018
     FM120000 17006KT 4SM BR OVC009=

USA.gov is the U.S. government's official web portal to all federal, state and local government web resources and services.